Home   Weather   Virginia Beach   Past weeks
Flag for USA

Past Weather in Virginia Beach, Virginia, USA — Yesterday and Last 2 Weeks

Now
50 °F

Sunny.


Feels Like: 44 °F
Forecast: 54 / 42 °F
Wind: 16 mph from Northwest

Location: Virginia Beach - Oceana

Current Time: Mar 23, 2019 at 11:19:07 am

Latest Report: Mar 23, 2019 at 10:56 am


Visibility: 10 mi

Pressure: 30.13 "Hg

Humidity: 35%

Dew Point: 23 °F

Location of Virginia BeachLocation

Past Weather in Virginia Beach — Graph

°F

Virginia Beach Temperature Yesterday

Maximum temperature yesterday: 60 °F (at 3:56 pm)
Minimum temperature yesterday: 44 °F (at 7:56 pm)
Average temperature yesterday: 51 °F

High & Low Weather Summary for the Past Weeks

 TemperatureHumidityPressure
High78 °F (Mar 15, 2:56 pm)100% (Mar 10, 6:56 am)30.45 "Hg (Mar 10, 6:56 am)
Low30 °F (Mar 13, 5:56 am)28% (Mar 12, 1:56 pm)29.56 "Hg (Mar 21, 5:22 pm)
Average50 °F69%30.13 "Hg
* Reported Mar 8 8:56 am — Mar 23 9:56 am, Virginia Beach. Weather by CustomWeather, © 2019

Note: Actual official high and low records may vary slightly from our data, if they occured in-between our weather recording intervals... More about our weather records

Advertising

Virginia Beach Weather History for the Previous 24 Hours

Scroll right to see more
 ConditionsComfort  
Time TempWeatherWind HumidityBarometerVisibility
9:56 am
Sat, Mar 23
48 °FSunny.15 mph41%30.11 "Hg10 mi
8:56 am45 °FPassing clouds.12 mph48%30.09 "Hg10 mi
7:56 am41 °FPassing clouds.9 mph55%30.06 "Hg10 mi
6:56 am40 °FPassing clouds.12 mph58%30.02 "Hg10 mi
5:56 am41 °FClear.13 mph51%29.98 "Hg10 mi
4:56 am41 °FClear.10 mph51%29.94 "Hg10 mi
3:56 am42 °FClear.10 mph49%29.93 "Hg10 mi
2:56 am42 °FClear.10 mph49%29.92 "Hg10 mi
1:56 am43 °FClear.13 mph49%29.92 "Hg10 mi
12:56 am44 °FClear.13 mph49%29.90 "Hg10 mi
11:56 pm
Fri, Mar 22
45 °FClear.15 mph48%29.89 "Hg10 mi
10:56 pm45 °FClear.20 mph65%29.85 "Hg10 mi
9:56 pm45 °FClear.10 mph65%29.85 "Hg10 mi
8:56 pm46 °FPartly cloudy.17 mph61%29.82 "Hg10 mi
7:56 pm44 °FLight rain. Fog.23 mph85%29.79 "Hg9 mi
6:56 pm55 °FPartly sunny.22 mph37%29.69 "Hg10 mi
5:56 pm57 °FPartly sunny.17 mph29%29.67 "Hg10 mi
4:56 pm56 °FPartly sunny.16 mph34%29.65 "Hg10 mi
3:56 pm60 °FPartly sunny.17 mph32%29.63 "Hg10 mi
2:56 pm59 °FPartly sunny.17 mph33%29.63 "Hg10 mi
1:56 pm59 °FPartly sunny.20 mph35%29.66 "Hg10 mi
12:56 pm59 °FScattered clouds.15 mph38%29.67 "Hg10 mi
11:56 am57 °FScattered clouds.13 mph41%29.68 "Hg10 mi
Weather by CustomWeather, © 2019

See weather overview